Regional Weather Roundup
Issued by NWS Little Rock, AR

Home | Current Version | Previous Version | Graphics & Text | Print | Product List | Glossary On
Versions: 1 2 3 4 5 6 7 8 9 10 11 12 13 14 15 16 17 18 19 20 21 22 23 24 25 26 27 28 29 30 31 32 33 34 35 36 37 38 39 40 41 42 43 44 45 46 47 48 49 50
000
ASUS44 KLZK 040005
RWRLZK

WEATHER ROUNDUP FOR ARKANSAS
NATIONAL WEATHER SERVICE LITTLE ROCK AR
600 PM CST SAT DEC 03 2016

NOTE: "FAIR" INDICATES FEW OR NO CLOUDS BELOW 12,000 FEET WITH NO
SIGNIFICANT WEATHER AND/OR OBSTRUCTIONS TO VISIBILITY.

ARZ001-003-010-029-040100-
NORTHWEST ARKANSAS

CITY           SKY/WX    TMP DP  RH WIND       PRES   REMARKS
FAYETTEVILLE   CLOUDY    41  41 100 E5        30.10F
6HR MIN TEMP:  41; 6HR MAX TEMP:  45; 6HR PCP:  0.14;

FORT SMITH     LGT RAIN  45  42  89 E16G23    30.10F
6HR MIN TEMP:  45; 6HR MAX TEMP:  47; 6HR PCP:  0.16;

HARRISON       LGT RAIN  38  38 100 E15       30.15F
6HR MIN TEMP:  38; 6HR MAX TEMP:  44; 6HR PCP:  0.10;

BENTONVILLE    CLOUDY    41  36  81 E12       30.12F
6HR MIN TEMP:  41; 6HR MAX TEMP:  50; 6HR PCP:  0.05;

ROGERS         LGT RAIN  40  39  97 E9        30.12F
6HR MIN TEMP:  40; 6HR MAX TEMP:  48; 6HR PCP:  0.02;

SILOAM SPGS    CLOUDY    43  37  81 E7        30.09F
6HR MIN TEMP:  43; 6HR MAX TEMP:  48; 6HR PCP:  0.05;

HIGHFILL       CLOUDY    42  40  92 E10       30.10F
6HR MIN TEMP:  42; 6HR MAX TEMP:  50; 6HR PCP:  0.06;

SPRINGDALE     LGT RAIN  41  39  93 E9        30.13S FOG
$$

ARZ004-005-016-040100-
NORTH CENTRAL ARKANSAS

CITY           SKY/WX    TMP DP  RH WIND       PRES   REMARKS
BATESVILLE     CLOUDY    41  37  87 NE6       30.24R
6HR MIN TEMP:  41; 6HR MAX TEMP:  45; 6HR PCP:  0.14;

FLIPPIN        CLOUDY    39  36  87 E8        30.18F
6HR MIN TEMP:  39; 6HR MAX TEMP:  45; 6HR PCP:  0.12;

MTN HOME       LGT RAIN  39  38  96 E8        30.20S FOG
6HR MIN TEMP:  39; 6HR MAX TEMP:  44; 6HR PCP:  0.13;

$$

ARZ040-041-040100-
WEST CENTRAL ARKANSAS

CITY           SKY/WX    TMP DP  RH WIND       PRES   REMARKS
MENA           CLOUDY    46  45  93 E10G16    30.07S
MOUNT IDA      LGT RAIN  46  44  93 VRB5      30.07S
6HR MIN TEMP:  45; 6HR MAX TEMP:  46; 6HR PCP:  0.44;

$$

ARZ009-017-025-026-028-040100-
NORTHEAST ARKANSAS

CITY           SKY/WX    TMP DP  RH WIND       PRES   REMARKS
CORNING        LGT RAIN  41  39  93 NE8       30.28R
JONESBORO      LGT RAIN  42  39  89 NE9       30.24S
6HR MIN TEMP:  42; 6HR MAX TEMP:  46; 6HR PCP:  0.06;

NEWPORT        LGT RAIN  43  41  93 NE13      30.24
6HR MIN TEMP:  43; 6HR MAX TEMP:  46; 6HR PCP:  0.10;

WALNUT RIDGE   CLOUDY    43  37  81 NE9       30.25S
6HR MIN TEMP:  43; 6HR MAX TEMP:  45; 6HR PCP:  0.05;

BLYTHEVILLE    LGT RAIN  43  39  86 NE5       30.27R
6HR MIN TEMP:  43; 6HR MAX TEMP:  47; 6HR PCP:  0.06;

$$

ARZ022-023-033-042-044-040100-
CENTRAL ARKANSAS

CITY           SKY/WX    TMP DP  RH WIND       PRES   REMARKS
LITTLE ROCK    LGT RAIN  43  43 100 NE13      30.16F
6HR MIN TEMP:  43; 6HR MAX TEMP:  45; 6HR PCP:  0.35;

JACKSONVILLE   LGT RAIN  43  43  99 NE12      30.15F
6HR MIN TEMP:  43; 6HR MAX TEMP:  45; 6HR PCP:  0.32;

SEARCY         RAIN      43  42  97 NE9       30.22S
6HR MIN TEMP:  43; 6HR MAX TEMP:  45; 6HR PCP:  0.26;

HOT SPRINGS    LGT RAIN  46  45  96 E13       30.09F
6HR MIN TEMP:  46; 6HR MAX TEMP:  47; 6HR PCP:  0.29;

RUSSELLVILLE   LGT RAIN  44  41  89 E9        30.14F
6HR MIN TEMP:  43; 6HR MAX TEMP:  46; 6HR PCP:  0.23;

$$

ARZ036-040100-
EAST ARKANSAS

CITY           SKY/WX    TMP DP  RH WIND       PRES   REMARKS
WEST MEMPHIS   LGT RAIN  43  41  93 E10       30.21S
6HR MIN TEMP:  43; 6HR MAX TEMP:  47; 6HR PCP:  0.08;

$$

ARZ050-053-066-070-073-040100-
SOUTHWEST ARKANSAS

CITY           SKY/WX    TMP DP  RH WIND       PRES   REMARKS
ARKADELPHIA    LGT RAIN  46  45  96 NE6       30.09F
6HR MIN TEMP:  46; 6HR MAX TEMP:  47; 6HR PCP:  0.44;

CAMDEN         LGT RAIN  46  43  87 E7        30.08S
TEXARKANA      LGT RAIN  46  46 100 E6        30.06R FOG
6HR MIN TEMP:  45; 6HR MAX TEMP:  47; 6HR PCP:  0.34;

EL DORADO      RAIN      46  45  96 E10       30.04F
6HR MIN TEMP:  46; 6HR MAX TEMP:  47; 6HR PCP:  0.51;

DE QUEEN       LGT RAIN  46  46 100 E13       30.02F FOG
6HR MIN TEMP:  46; 6HR MAX TEMP:  47;

$$

ARZ056-057-069-040100-
SOUTHEAST ARKANSAS

CITY           SKY/WX    TMP DP  RH WIND       PRES   REMARKS
PINE BLUFF     LGT RAIN  46  44  93 E12       30.13F
6HR MIN TEMP:  46; 6HR MAX TEMP:  47; 6HR PCP:  0.33;

STUTTGART      CLOUDY    46  39  76 NE15      30.15F
6HR MIN TEMP:  45; 6HR MAX TEMP:  46; 6HR PCP:  0.24;

MONTICELLO     RAIN      46  44  93 E12       30.10S FOG
6HR MIN TEMP:  46; 6HR MAX TEMP:  46; 6HR PCP:  0.44;


$$





USA.gov is the U.S. government's official web portal to all federal, state and local government web resources and services.